Stations météo

réclame
Mon MeteoGroup
Kenley, Grande-Bretagne (3781): Température de l'air & dewpoint: 12.06.2018 14:00:00 - 18.06.2018 14:00:00 (BST)Kenley, Grande-Bretagne (3781): Température de l'air -20cm & Température de l'air -100cm: 12.06.2018 14:00:00 - 18.06.2018 14:00:00 (BST)Kenley, Grande-Bretagne (3781): Vitesse du vent & gusts: 12.06.2018 14:00:00 - 18.06.2018 14:00:00 (BST)Kenley, Grande-Bretagne (3781): Direction du vent: 12.06.2018 14:00:00 - 18.06.2018 14:00:00 (BST)Kenley, Grande-Bretagne (3781): reduced air pressure: 12.06.2018 14:00:00 - 18.06.2018 14:00:00 (BST)Kenley, Grande-Bretagne (3781): visibility: 12.06.2018 14:00:00 - 18.06.2018 14:00:00 (BST)Kenley, Grande-Bretagne (3781): Quantités de précipitations: 12.06.2018 14:00:00 - 18.06.2018 14:00:00 (BST)
Date & Time tt [°C] td [°C] tt -20cm [°C] tt -100cm [°C] ff [km/h] ff [knt] fx [km/h] fx [knt] dd ppp [hPa] vv [km] rr [mm]
18.06.2018 14:00:00 21,4 11,2 - - 22 12 - - W 1019,4 30 0,0
18.06.2018 13:00:00 20,8 12,0 - - 21 11 - - W 1019,5 30 0,0
18.06.2018 12:00:00 18,8 12,3 - - 21 11 - - W 1019,7 50 0,0
18.06.2018 11:00:00 15,7 11,8 - - 21 11 - - W 1019,8 50 0,0
18.06.2018 10:00:00 14,8 12,2 16,5 14,7 16 9 - - W 1019,7 50 0,0
18.06.2018 09:00:00 14,4 12,9 - - 22 12 - - W 1019,5 40 0,0
18.06.2018 08:00:00 13,9 12,8 - - 15 8 - - W 1018,8 45 0,0
18.06.2018 07:00:00 13,6 12,8 - - 15 8 - - W 1018,2 20 0,0
18.06.2018 06:00:00 14,2 13,7 - - 13 7 - - WSW 1017,9 12 0,0
18.06.2018 05:00:00 14,3 14,3 - - 16 9 - - WSW 1017,6 29 0,2
18.06.2018 04:00:00 14,2 14,2 - - 15 8 - - SW 1017,2 2,5 0,2
18.06.2018 03:00:00 14,1 14,1 - - 16 9 - - SW 1017,1 0,7 0,0
18.06.2018 02:00:00 14,1 14,0 - - 15 8 - - SW 1017,2 0,7 0,0
18.06.2018 01:00:00 14,0 14,0 - - 18 10 - - SSW 1017,3 0,4 0,0
18.06.2018 00:00:00 14,0 13,9 - - 16 9 - - SSW 1017,6 0,7 0,0
17.06.2018 23:00:00 13,8 13,7 - - 16 9 - - S 1017,5 1,4 0,0
17.06.2018 22:00:00 13,6 13,4 - - 16 9 - - SSW 1017,5 4,9 0,0
17.06.2018 21:00:00 13,4 13,1 - - 18 10 - - SW 1017,3 4,4 0,0
17.06.2018 20:00:00 13,2 12,8 - - 16 9 - - SW 1017,5 7 0,0
17.06.2018 19:00:00 13,4 12,5 - - 21 11 - - SSW 1017,3 3,5 0,0
17.06.2018 18:00:00 14,6 11,1 - - 24 13 - - SW 1017,1 45 0,0
17.06.2018 17:00:00 15,7 10,8 - - 24 13 - - SW 1017,1 30 0,0
17.06.2018 16:00:00 15,6 10,8 - - 24 13 - - SW 1017,0 30 0,0
17.06.2018 15:00:00 15,8 10,6 - - 24 13 - - SW 1017,1 35 0,0
17.06.2018 14:00:00 15,7 9,9 - - 22 12 - - SW 1017,1 45 0,0
17.06.2018 13:00:00 16,9 10,6 - - 21 11 - - SW 1016,7 30 0,0
17.06.2018 12:00:00 16,1 9,5 - - 22 12 - - WSW 1016,8 45 0,0
17.06.2018 11:00:00 15,3 10,3 - - 18 10 - - SW 1016,7 45 0,0
17.06.2018 10:00:00 14,0 11,1 16,5 14,7 15 8 - - W 1017,4 50 0,0
17.06.2018 09:00:00 13,0 11,3 - - 13 7 - - WSW 1016,9 21 0,2
17.06.2018 08:00:00 12,0 10,2 - - 13 7 - - WSW 1017,1 23 0,0
17.06.2018 07:00:00 12,3 9,2 - - 15 8 - - WSW 1016,3 35 0,0
17.06.2018 06:00:00 12,0 8,7 - - 13 7 - - WSW 1015,8 50 0,0
17.06.2018 05:00:00 11,9 8,7 - - 11 6 - - WSW 1015,5 50 0,0
17.06.2018 04:00:00 12,1 8,5 - - 11 6 - - WSW 1015,5 45 0,0
17.06.2018 03:00:00 11,9 8,2 - - 15 8 - - WSW 1015,6 50 0,0
17.06.2018 02:00:00 11,9 8,0 - - 16 9 - - WSW 1015,4 45 0,0
17.06.2018 01:00:00 12,0 7,9 - - 16 9 - - WSW 1015,4 50 0,0
17.06.2018 00:00:00 12,6 7,4 - - 18 10 - - WSW 1015,2 50 0,0
16.06.2018 23:00:00 13,5 7,6 - - 24 13 - - W 1014,9 40 0,0
16.06.2018 22:00:00 14,2 8,6 - - 24 13 - - W 1014,7 45 0,0
16.06.2018 21:00:00 14,3 12,2 - - 21 11 - - SW 1013,9 16 0,0
16.06.2018 20:00:00 14,8 11,6 - - 24 13 - - SW 1013,4 28 0,0
16.06.2018 19:00:00 15,5 11,4 - - 21 11 - - SSW 1013,5 45 0,0
16.06.2018 18:00:00 14,7 12,1 - - 18 10 - - SW 1013,9 40 0,0
16.06.2018 17:00:00 15,5 11,6 - - 22 12 - - SSW 1014,0 40 0,0
16.06.2018 16:00:00 15,5 11,3 - - 24 13 - - SW 1014,4 45 0,0
16.06.2018 15:00:00 16,0 10,2 - - 29 16 - - SW 1014,3 30 0,0
16.06.2018 14:00:00 17,5 11,0 - - 22 12 - - SW 1014,1 45 0,0
16.06.2018 13:00:00 16,1 10,6 - - 16 9 - - SW 1014,4 25 0,0
16.06.2018 12:00:00 16,0 9,3 - - 22 12 - - SW 1014,7 45 0,0
16.06.2018 11:00:00 15,7 9,3 - - 16 9 - - W 1014,7 40 0,0
16.06.2018 10:00:00 15,0 10,4 17,0 14,7 16 9 - - W 1014,9 50 0,0
16.06.2018 09:00:00 15,2 12,5 - - 16 9 - - SW 1015,0 26 0,0
16.06.2018 08:00:00 13,3 11,6 - - 13 7 - - SSW 1015,2 22 0,0
16.06.2018 07:00:00 12,8 10,9 - - 9 5 - - SW 1015,1 30 0,0
16.06.2018 06:00:00 12,8 9,1 - - 8 4 - - S 1015,0 45 0,0
16.06.2018 05:00:00 11,9 8,4 - - 0 0 - - N 1015,1 50 0,0
16.06.2018 04:00:00 12,6 8,2 - - 8 4 - - SW 1015,5 50 0,0
16.06.2018 03:00:00 12,8 8,2 - - 5 3 - - SW 1015,7 50 0,0
16.06.2018 02:00:00 12,8 7,9 - - 5 3 - - W 1015,8 50 0,0
16.06.2018 01:00:00 12,9 8,1 - - 8 4 - - W 1016,3 35 0,0
16.06.2018 00:00:00 13,9 7,9 - - 4 2 - - WNW 1015,9 50 0,0
15.06.2018 23:00:00 14,0 8,0 - - 8 4 - - W 1016,1 50 0,0
15.06.2018 22:00:00 14,3 7,5 - - 8 4 - - WNW 1016,2 50 0,0
15.06.2018 21:00:00 16,4 10,9 - - 11 6 - - WSW 1015,8 30 0,0
15.06.2018 20:00:00 17,5 10,7 - - 16 9 - - SW 1015,8 40 0,0
15.06.2018 19:00:00 18,5 8,2 - - 15 8 - - WSW 1015,4 50 0,0
15.06.2018 18:00:00 19,5 8,2 - - 18 10 - - W 1015,5 45 0,0
15.06.2018 17:00:00 19,8 8,7 - - 15 8 - - WSW 1015,8 50 0,0
15.06.2018 16:00:00 19,7 9,5 - - 16 9 - - WSW 1016,0 40 0,0
15.06.2018 15:00:00 20,4 9,1 - - 9 5 - - SW 1016,1 50 0,0
15.06.2018 14:00:00 20,1 8,8 - - 9 5 - - WSW 1016,2 45 0,0
15.06.2018 13:00:00 19,8 8,8 - - 13 7 - - SW 1016,3 25 0,0
15.06.2018 12:00:00 19,0 8,6 - - 5 3 - - W 1016,7 35 0,0
15.06.2018 11:00:00 18,7 8,6 - - 5 3 - - S 1016,6 35 0,0
15.06.2018 10:00:00 17,4 8,8 16,5 14,7 8 4 - - N 1016,8 26 0,0
15.06.2018 09:00:00 15,9 9,4 - - 8 4 - - N 1017,3 30 0,0
15.06.2018 08:00:00 14,1 9,7 - - 5 3 - - N 1017,1 29 0,0
15.06.2018 07:00:00 12,7 10,5 - - 5 3 - - NNW 1016,8 21 0,0
15.06.2018 06:00:00 10,9 10,3 - - 2 1 - - NNE 1016,8 18 0,0
15.06.2018 05:00:00 9,6 8,3 - - 8 4 - - NW 1016,7 22 0,0
15.06.2018 04:00:00 10,7 9,1 - - 8 4 - - NW 1016,6 22 0,0
15.06.2018 03:00:00 11,2 9,2 - - 8 4 - - NW 1016,5 23 0,0
15.06.2018 02:00:00 12,4 9,6 - - 5 3 - - NW 1016,3 26 0,0
15.06.2018 01:00:00 12,9 9,7 - - 9 5 - - WNW 1016,4 28 0,0
15.06.2018 00:00:00 13,8 10,2 - - 15 8 - - W 1016,3 22 0,0
14.06.2018 23:00:00 14,0 9,9 - - 8 4 - - W 1015,9 35 0,0
14.06.2018 22:00:00 15,7 9,8 - - 8 4 - - W 1015,4 30 0,0
14.06.2018 21:00:00 17,5 9,7 - - 11 6 - - WNW 1014,4 45 0,0
14.06.2018 20:00:00 19,2 10,2 - - 9 5 - - WNW 1013,6 35 0,0
14.06.2018 19:00:00 19,5 9,4 - - 16 9 - - WNW 1013,1 35 0,0
14.06.2018 18:00:00 20,2 10,0 - - 18 10 - - W 1012,5 18 0,0
14.06.2018 17:00:00 21,3 11,5 - - 15 8 - - WNW 1012,0 21 0,0
14.06.2018 16:00:00 20,3 10,6 - - 18 10 - - W 1011,7 30 0,0
14.06.2018 15:00:00 19,9 10,4 - - 24 13 - - W 1011,1 35 0,0
14.06.2018 14:00:00 18,7 13,4 - - 24 13 - - W 1011,2 35 0,0
14.06.2018 13:00:00 15,7 15,1 - - 18 10 - - SW 1011,2 26 0,0
14.06.2018 12:00:00 14,4 13,8 - - 24 13 - - SW 1011,0 5 0,0
14.06.2018 11:00:00 13,9 13,5 - - 22 12 48 26 SSW 1010,8 8 0,2
14.06.2018 10:00:00 13,9 12,6 16,7 14,7 31 17 48 26 SSW 1010,5 17 0,0
14.06.2018 09:00:00 13,5 12,0 - - 28 15 52 28 SSW 1010,8 7 0,0
14.06.2018 08:00:00 13,6 11,5 - - 29 16 48 26 SSW 1010,6 35 0,0
14.06.2018 07:00:00 13,4 11,1 - - 28 15 - - SW 1010,9 45 0,0
14.06.2018 06:00:00 13,2 11,0 - - 26 14 - - SSW 1011,4 30 0,0
14.06.2018 05:00:00 13,1 11,3 - - 26 14 - - SSW 1011,8 40 0,0
14.06.2018 04:00:00 13,0 11,5 - - 24 13 46 25 SSW 1012,5 30 0,0
14.06.2018 03:00:00 13,0 11,4 - - 24 13 - - SSW 1013,2 18 0,0
14.06.2018 02:00:00 12,8 11,6 - - 22 12 - - SSW 1014,2 9 0,0
14.06.2018 01:00:00 12,9 11,4 - - 22 12 - - SSW 1014,9 8 0,0
14.06.2018 00:00:00 12,9 10,5 - - 18 10 - - SSW 1015,6 17 0,0
13.06.2018 23:00:00 13,2 10,2 - - 24 13 - - SSW 1016,0 30 0,0
13.06.2018 22:00:00 13,5 9,3 - - 21 11 - - SSW 1016,4 40 0,0
13.06.2018 21:00:00 14,6 8,5 - - 18 10 - - SSW 1016,5 50 0,0
13.06.2018 20:00:00 15,6 8,5 - - 16 9 - - SSW 1016,7 50 0,0
13.06.2018 19:00:00 16,3 8,3 - - 24 13 - - SSW 1017,0 50 0,0
13.06.2018 18:00:00 17,7 10,0 - - 22 12 - - SSW 1016,9 35 0,0
13.06.2018 17:00:00 17,7 10,2 - - 21 11 - - SSW 1017,2 45 0,0
13.06.2018 16:00:00 19,3 11,8 - - 18 10 - - SW 1017,4 40 0,0
13.06.2018 15:00:00 18,6 10,7 - - 21 11 - - SSW 1017,7 40 0,0
13.06.2018 14:00:00 18,9 9,1 - - 13 7 - - WSW 1018,2 50 0,0
13.06.2018 13:00:00 18,4 9,1 - - 15 8 - - SW 1018,8 40 0,0
13.06.2018 12:00:00 18,5 9,0 - - 9 5 - - SSW 1019,2 40 0,0
13.06.2018 11:00:00 17,3 8,3 - - 8 4 - - SSW 1019,2 45 0,0
13.06.2018 10:00:00 15,9 8,5 16,5 14,7 5 3 - - S 1019,2 35 0,0
13.06.2018 09:00:00 14,4 8,5 - - 5 3 - - WSW 1019,8 30 0,0
13.06.2018 08:00:00 12,8 9,1 - - 2 1 - - SE 1020,0 40 0,0
13.06.2018 07:00:00 10,4 10,0 - - 0 0 - - N 1020,3 40 0,0
13.06.2018 06:00:00 7,6 7,4 - - 4 2 - - SE 1020,1 35 0,0
13.06.2018 05:00:00 6,8 6,2 - - 0 0 - - N 1020,3 29 0,0
13.06.2018 04:00:00 7,2 6,7 - - 2 1 - - S 1020,2 40 0,0
13.06.2018 03:00:00 7,5 6,8 - - 0 0 - - N 1020,2 50 0,0
13.06.2018 02:00:00 7,7 6,3 - - 4 2 - - NE 1020,4 50 0,0
13.06.2018 01:00:00 8,8 6,6 - - 2 1 - - N 1020,4 50 0,0
13.06.2018 00:00:00 9,8 5,7 - - 4 2 - - NNE 1020,1 50 0,0
12.06.2018 23:00:00 11,0 6,6 - - 8 4 - - NNE 1019,8 50 0,0
12.06.2018 22:00:00 12,7 7,6 - - 11 6 - - NNE 1019,2 50 0,0
12.06.2018 21:00:00 14,6 8,8 - - 11 6 - - NNE 1018,5 50 0,0
12.06.2018 20:00:00 15,1 9,2 - - 11 6 - - NNE 1018,1 50 0,0
12.06.2018 19:00:00 15,6 9,7 - - 13 7 - - N 1017,8 50 0,0
12.06.2018 18:00:00 15,8 11,1 - - 11 6 - - NNE 1017,6 40 0,0
12.06.2018 17:00:00 14,7 11,1 - - 11 6 - - NNE 1017,8 45 0,0
12.06.2018 16:00:00 15,4 11,8 - - 15 8 - - N 1017,7 35 0,0
12.06.2018 15:00:00 15,3 11,9 - - 13 7 - - NNE 1017,7 27 0,0
12.06.2018 14:00:00 15,1 11,3 - - 15 8 - - NNE 1017,5 30 0,0

tt = Température de l'air
td = dewpoint
tt -20cm = Température de l'air -20cm
tt -100cm = Température de l'air -100cm
ff = Vitesse du vent
fx = gusts
dd = Direction du vent
ppp = reduced air pressure
vv = visibility
rr = Quantités de précipitations

stations d'obs. à proximité